Location: Waco, TX
(31.5480°N, 97.1670°W)
Time: 11:24:57
(UTC-05:00)

ISS - Pass Details

Date: 15 June 2018
Orbit: 402 x 406 km, 51.6° (Epoch: 22 June)

Event Time Altitude Azimuth Distance (km) Brightness Sun altitude
Rises 12:26:31 0° 255° (WSW) 2,317 -0.1 73.9°
Reaches altitude 10° 12:28:58 10° 273° (W) 1,460 -1.0 74.3°
Maximum altitude 12:31:28 20° 323° (NW) 1,001 -1.7 74.8°
Drops below altitude 10° 12:33:59 10° 13° (NNE) 1,463 -0.9 75.3°
Sets 12:36:27 0° 31° (NNE) 2,325 0.0 75.7°
